Location: Manderson
(44.2693°N, 107.9639°W)
Time: 01:32:02
(UTC+00:00)

N. Korean satellite - Visible Passes

Search period start: 27 January 2022 00:00
Search period end: 06 February 2022 00:00
Orbit: 447 x 490 km, 97.3° (Epoch: 26 January)

Date Brightness Start Highest point End Pass type
(mag) Time Alt. Az. Time Alt. Az. Time Alt. Az.
27 Jan 9.3 11:36:03 10° NE 11:38:38 18° E 11:39:00 18° E visible
27 Jan 7.3 13:08:36 10° N 13:11:49 30° WNW 13:13:04 24° WSW visible
28 Jan 6.4 12:39:04 10° N 12:42:42 71° WNW 12:44:00 37° SSW visible
29 Jan 10.2 00:49:47 10° WSW 00:50:53 11° W 00:51:59 10° WNW visible
29 Jan 7.5 12:09:55 10° NNE 12:13:27 47° E 12:14:58 28° SSE visible
29 Jan 8.4 13:44:25 10° NW 13:46:11 13° WNW 13:47:56 10° W visible
30 Jan 9.1 11:41:15 10° NE 11:44:04 21° E 11:45:59 14° SE visible
30 Jan 7.5 13:14:05 10° NNW 13:17:10 26° WNW 13:20:03 11° SW visible
31 Jan 6.5 12:44:26 10° N 12:48:02 60° WNW 12:51:10 13° SSW visible
01 Feb 7.2 12:15:10 10° NNE 12:18:45 55° E 12:22:17 10° S visible
01 Feb 8.5 13:50:09 10° NW 13:51:24 11° WNW 13:52:38 10° W visible
02 Feb 8.9 11:46:20 10° NE 11:49:20 24° E 11:52:17 10° SSE visible
02 Feb 7.7 13:19:26 10° NNW 13:22:22 23° WNW 13:25:15 10° WSW visible
03 Feb 10.0 11:18:45 10° ENE 11:19:46 11° E 11:20:46 10° ESE visible
03 Feb 6.6 12:49:40 10° N 12:53:12 51° WNW 12:56:41 10° SSW visible
04 Feb 6.9 12:20:17 10° NNE 12:23:54 65° E 12:27:27 10° S visible
05 Feb 8.6 11:51:19 10° NE 11:54:27 27° E 11:57:32 10° SSE visible
05 Feb 7.9 13:24:41 10° NNW 13:27:25 20° WNW 13:30:07 10° WSW visible
